sat.trackr.live / text

‹ back to catalog

STARLINK-31932

NORAD 59929 · 2024-106H

PAYLOAD ACTIVE UNKNOWN

§ Identity

Operator
Country
US
Launch date
2024-06-01
Launch site
AFETR
Launch vehicle
Mass (kg)
RCS (m²)

Purposes: comms

External: N2YO · Heavens-Above · Gunter

§ Orbital elements

Epoch: 2026-09-21T08:00:03.000384Z

Period
94.27 min
Inclination
43.0023°
Eccentricity
0.0001197
Mean motion
15.27583453 rev/d
Perigee alt
482.2 km
Apogee alt
483.9 km
Semi-major
6,861.2 km
B*
-4.7867e-4
RAAN
304.4277°
Arg perigee
272.0811°
Mean anomaly
308.2491°
Rev number
572

§ Raw data

STARLINK-319321 59929U 24106H   26264.33336806 -.00013411  00000+0 -47867-3 0  99952 59929  43.0023 304.4277 0001197 272.0811 308.2491 15.27583453  5728

JSON: /api/v1/satellites/59929 · /tle

For live sub-satellite position, see the globe view (requires WebGL).

§ Visibility from observer

Set your observer location to see the next 7 days of passes ≥ 10°. The values pass through the URL so the page stays shareable.

No JS? Fill the form by hand. The geolocation button needs JavaScript.